Station Historical Data
Daily Summary for March 6, 2018 Units:  English    Metric   Both
« Previous Day
Next Day »
Daily Weekly Monthly Yearly Custom
  High: Low: Average:
Temperature: 36.9 °F 25.2 °F 30.7 °F
Dew Point: 30.5 °F 19.3 °F 24.2 °F
Humidity: 88% 65% 77%
Wind Speed: 11.0mph 0.0mph 2.3mph
Wind Gust: 15.0mph - -
Wind- - East
Pressure: 30.16 in 29.75 in -
Precipitation: 0.00 in    
Historical Graphs
 
 
Tabular Data for March 6, 2018
Time Temperature Dew Point Pressure Wind Wind Speed Wind Gust Humidity Rainfall Rate (Hourly)
00:04 25.5 °F 19.6 °F 30.16 in Calm     78% 0.00 in
00:09 25.4 °F 19.5 °F 30.16 in Calm     78% 0.00 in
00:14 25.5 °F 19.6 °F 30.15 in Calm     78% 0.00 in
00:19 25.5 °F 19.6 °F 30.15 in Calm   3.0 mph 78% 0.00 in
00:24 25.6 °F 19.7 °F 30.15 in Calm   4.0 mph 78% 0.00 in
00:29 25.6 °F 19.7 °F 30.15 in Calm   3.0 mph 78% 0.00 in
00:34 25.6 °F 19.7 °F 30.15 in SSE 1.0 mph 3.0 mph 78% 0.00 in
00:39 25.6 °F 19.7 °F 30.14 in Calm   3.0 mph 78% 0.00 in
00:44 25.6 °F 19.7 °F 30.14 in SE 1.0 mph 4.0 mph 78% 0.00 in
00:49 25.6 °F 19.7 °F 30.15 in Calm   6.0 mph 78% 0.00 in
00:54 25.6 °F 19.7 °F 30.14 in ESE 3.0 mph 4.0 mph 78% 0.00 in
00:59 25.5 °F 19.6 °F 30.14 in Calm   3.0 mph 78% 0.00 in
01:04 25.5 °F 19.6 °F 30.14 in ESE 3.0 mph 4.0 mph 78% 0.00 in
01:09 25.5 °F 19.6 °F 30.14 in ESE 1.0 mph 4.0 mph 78% 0.00 in
01:14 25.4 °F 19.5 °F 30.14 in ESE 1.0 mph 5.0 mph 78% 0.00 in
01:19 25.4 °F 19.5 °F 30.14 in ESE 1.0 mph 5.0 mph 78% 0.00 in
01:24 25.4 °F 19.5 °F 30.14 in ESE 1.0 mph 5.0 mph 78% 0.00 in
01:29 25.4 °F 19.5 °F 30.14 in SE 3.0 mph 6.0 mph 78% 0.00 in
01:34 25.3 °F 19.4 °F 30.14 in ESE 2.0 mph 5.0 mph 78% 0.00 in
01:39 25.3 °F 19.4 °F 30.14 in SSE 4.0 mph 5.0 mph 78% 0.00 in
01:44 25.2 °F 19.3 °F 30.14 in SE 2.0 mph 6.0 mph 78% 0.00 in
01:49 25.2 °F 19.6 °F 30.14 in ESE 2.0 mph 5.0 mph 79% 0.00 in
01:54 25.3 °F 19.7 °F 30.14 in Calm   2.0 mph 79% 0.00 in
01:59 25.3 °F 19.7 °F 30.14 in SE 1.0 mph 4.0 mph 79% 0.00 in
02:04 25.3 °F 19.7 °F 30.14 in SE 1.0 mph 5.0 mph 79% 0.00 in
02:09 25.4 °F 19.8 °F 30.13 in Calm   4.0 mph 79% 0.00 in
02:14 25.4 °F 19.8 °F 30.13 in Calm   2.0 mph 79% 0.00 in
02:19 25.5 °F 19.9 °F 30.12 in Calm   2.0 mph 79% 0.00 in
02:24 25.6 °F 19.7 °F 30.12 in Calm     78% 0.00 in
02:29 25.7 °F 19.8 °F 30.11 in Calm     78% 0.00 in
02:34 25.8 °F 19.9 °F 30.11 in Calm     78% 0.00 in
02:39 25.9 °F 20.0 °F 30.11 in Calm   4.0 mph 78% 0.00 in
02:44 25.9 °F 20.0 °F 30.10 in SE 2.0 mph 4.0 mph 78% 0.00 in
02:49 26.0 °F 20.1 °F 30.10 in SSE 1.0 mph 4.0 mph 78% 0.00 in
02:54 26.0 °F 20.1 °F 30.10 in SE 1.0 mph 4.0 mph 78% 0.00 in
02:59 26.1 °F 20.2 °F 30.10 in SE 1.0 mph 3.0 mph 78% 0.00 in
03:04 26.2 °F 20.3 °F 30.10 in SSE 4.0 mph 5.0 mph 78% 0.00 in
03:09 26.3 °F 20.4 °F 30.10 in SSE 2.0 mph 4.0 mph 78% 0.00 in
03:14 26.4 °F 20.2 °F 30.10 in Calm   3.0 mph 77% 0.00 in
03:19 26.4 °F 20.2 °F 30.10 in Calm   2.0 mph 77% 0.00 in
03:24 26.5 °F 20.6 °F 30.10 in Calm   3.0 mph 78% 0.00 in
03:29 26.5 °F 20.6 °F 30.09 in SSE 1.0 mph 3.0 mph 78% 0.00 in
03:34 26.5 °F 20.3 °F 30.09 in SSE 1.0 mph 3.0 mph 77% 0.00 in
03:39 26.6 °F 20.4 °F 30.08 in Calm   3.0 mph 77% 0.00 in
03:45 26.6 °F 20.4 °F 30.08 in SE 1.0 mph 4.0 mph 77% 0.00 in
03:54 26.6 °F 20.7 °F 30.07 in Calm   4.0 mph 78% 0.00 in
03:59 26.7 °F 20.8 °F 30.07 in SE 1.0 mph 4.0 mph 78% 0.00 in
04:04 26.7 °F 20.5 °F 30.07 in SE 2.0 mph 4.0 mph 77% 0.00 in
04:09 26.7 °F 20.5 °F 30.07 in SE 2.0 mph 3.0 mph 77% 0.00 in
04:14 26.7 °F 20.5 °F 30.07 in SE 3.0 mph 4.0 mph 77% 0.00 in
04:19 26.8 °F 20.6 °F 30.07 in Calm   3.0 mph 77% 0.00 in
04:24 26.7 °F 20.5 °F 30.06 in SE 3.0 mph 3.0 mph 77% 0.00 in
04:30 26.7 °F 20.5 °F 30.06 in SE 1.0 mph 5.0 mph 77% 0.00 in
04:39 26.6 °F 20.4 °F 30.06 in East 2.0 mph 5.0 mph 77% 0.00 in
04:44 26.6 °F 20.7 °F 30.05 in ENE 1.0 mph 5.0 mph 78% 0.00 in
04:49 26.7 °F 20.8 °F 30.05 in East 1.0 mph 5.0 mph 78% 0.00 in
04:54 26.7 °F 20.8 °F 30.06 in East 2.0 mph 5.0 mph 78% 0.00 in
04:59 26.8 °F 20.9 °F 30.05 in ESE 4.0 mph 5.0 mph 78% 0.00 in
05:04 26.9 °F 21.0 °F 30.05 in East 6.0 mph 6.0 mph 78% 0.00 in
05:09 26.9 °F 20.7 °F 30.05 in East 2.0 mph 6.0 mph 77% 0.00 in
05:14 26.9 °F 21.0 °F 30.05 in ESE 1.0 mph 4.0 mph 78% 0.00 in
05:19 26.9 °F 21.0 °F 30.05 in SE 2.0 mph 5.0 mph 78% 0.00 in
05:24 26.9 °F 21.0 °F 30.04 in SSE 3.0 mph 8.0 mph 78% 0.00 in
05:29 27.1 °F 21.2 °F 30.04 in Calm   5.0 mph 78% 0.00 in
05:34 27.1 °F 20.8 °F 30.04 in SE 2.0 mph 6.0 mph 77% 0.00 in
05:44 27.2 °F 20.9 °F 30.04 in ESE 3.0 mph 8.0 mph 77% 0.00 in
05:49 27.4 °F 21.1 °F 30.03 in ESE 2.0 mph 8.0 mph 77% 0.00 in
05:54 27.4 °F 21.1 °F 30.03 in ESE 2.0 mph 8.0 mph 77% 0.00 in
05:59 27.4 °F 21.1 °F 30.03 in ESE 2.0 mph 7.0 mph 77% 0.00 in
06:04 27.4 °F 20.8 °F 30.04 in ESE 2.0 mph 7.0 mph 76% 0.00 in
06:09 27.4 °F 20.8 °F 30.04 in ESE 3.0 mph 8.0 mph 76% 0.00 in
06:14 27.4 °F 20.8 °F 30.04 in ESE 4.0 mph 10.0 mph 76% 0.00 in
06:19 27.4 °F 20.8 °F 30.03 in SSE 2.0 mph 6.0 mph 76% 0.00 in
06:24 27.4 °F 20.8 °F 30.03 in SE 8.0 mph 8.0 mph 76% 0.00 in
06:29 27.4 °F 20.8 °F 30.03 in Calm   8.0 mph 76% 0.00 in
06:34 27.4 °F 20.8 °F 30.03 in Calm   8.0 mph 76% 0.00 in
06:39 27.4 °F 20.8 °F 30.03 in East 2.0 mph 8.0 mph 76% 0.00 in
06:44 27.4 °F 20.8 °F 30.03 in ESE 2.0 mph 7.0 mph 76% 0.00 in
06:49 27.4 °F 20.8 °F 30.02 in Calm   8.0 mph 76% 0.00 in
06:54 27.4 °F 20.8 °F 30.02 in ESE 3.0 mph 9.0 mph 76% 0.00 in
06:59 27.4 °F 20.8 °F 30.02 in ESE 3.0 mph 9.0 mph 76% 0.00 in
07:04 27.4 °F 20.8 °F 30.02 in East 3.0 mph 9.0 mph 76% 0.00 in
07:09 27.4 °F 20.8 °F 30.02 in ESE 3.0 mph 9.0 mph 76% 0.00 in
07:14 27.4 °F 20.8 °F 30.02 in ESE 3.0 mph 9.0 mph 76% 0.00 in
07:19 27.4 °F 20.5 °F 30.01 in East 3.0 mph 10.0 mph 75% 0.00 in
07:24 27.4 °F 20.5 °F 30.01 in East 4.0 mph 13.0 mph 75% 0.00 in
07:29 27.4 °F 20.5 °F 30.01 in East 1.0 mph 8.0 mph 75% 0.00 in
07:34 27.5 °F 20.6 °F 30.01 in ENE 3.0 mph 11.0 mph 75% 0.00 in
07:39 27.6 °F 20.7 °F 30.01 in ESE 4.0 mph 10.0 mph 75% 0.00 in
07:44 27.8 °F 20.9 °F 30.01 in East 1.0 mph 9.0 mph 75% 0.00 in
07:49 28.0 °F 21.1 °F 30.01 in East 5.0 mph 9.0 mph 75% 0.00 in
07:54 28.1 °F 21.2 °F 30.01 in ESE 2.0 mph 9.0 mph 75% 0.00 in
07:59 28.0 °F 20.8 °F 30.01 in ENE 3.0 mph 9.0 mph 74% 0.00 in
08:04 28.2 °F 21.0 °F 30.01 in East 4.0 mph 14.0 mph 74% 0.00 in
08:09 28.6 °F 21.4 °F 30.00 in East 5.0 mph 14.0 mph 74% 0.00 in
08:14 28.8 °F 21.6 °F 30.00 in ESE 5.0 mph 9.0 mph 74% 0.00 in
08:19 28.7 °F 21.1 °F 30.00 in ESE 5.0 mph 12.0 mph 73% 0.00 in
08:24 28.6 °F 21.0 °F 30.00 in ESE 5.0 mph 12.0 mph 73% 0.00 in
08:29 28.5 °F 20.9 °F 30.00 in ESE 4.0 mph 11.0 mph 73% 0.00 in
08:34 28.6 °F 21.4 °F 30.00 in East 6.0 mph 8.0 mph 74% 0.00 in
08:39 28.7 °F 21.5 °F 30.00 in NE 2.0 mph 10.0 mph 74% 0.00 in
08:44 28.6 °F 21.4 °F 29.99 in SE 5.0 mph 7.0 mph 74% 0.00 in
08:49 28.7 °F 21.5 °F 29.99 in SSE 5.0 mph 11.0 mph 74% 0.00 in
08:54 28.7 °F 21.5 °F 29.99 in SE 4.0 mph 11.0 mph 74% 0.00 in
08:59 28.7 °F 21.5 °F 29.99 in ESE 5.0 mph 6.0 mph 74% 0.00 in
09:04 29.4 °F 22.1 °F 29.98 in ESE 2.0 mph 7.0 mph 74% 0.00 in
09:09 29.3 °F 21.4 °F 29.98 in SE 3.0 mph 13.0 mph 72% 0.00 in
09:14 28.8 °F 21.2 °F 29.98 in East 4.0 mph 13.0 mph 73% 0.00 in
09:19 28.6 °F 21.0 °F 29.98 in East 4.0 mph 13.0 mph 73% 0.00 in
09:24 28.7 °F 21.1 °F 29.98 in East 4.0 mph 13.0 mph 73% 0.00 in
09:29 29.4 °F 21.8 °F 29.98 in East 4.0 mph 10.0 mph 73% 0.00 in
09:34 29.6 °F 21.7 °F 29.97 in East 4.0 mph 10.0 mph 72% 0.00 in
09:39 29.9 °F 22.0 °F 29.97 in SE 4.0 mph 9.0 mph 72% 0.00 in
09:44 30.5 °F 22.2 °F 29.96 in ESE 4.0 mph 8.0 mph 71% 0.00 in
09:49 30.4 °F 22.1 °F 29.96 in ESE 4.0 mph 10.0 mph 71% 0.00 in
09:54 30.3 °F 22.0 °F 29.96 in East 3.0 mph 11.0 mph 71% 0.00 in
09:59 30.4 °F 22.1 °F 29.95 in East 5.0 mph 10.0 mph 71% 0.00 in
10:04 30.6 °F 22.3 °F 29.95 in ESE 7.0 mph 10.0 mph 71% 0.00 in
10:09 31.0 °F 22.7 °F 29.95 in SE 3.0 mph 10.0 mph 71% 0.00 in
10:14 31.1 °F 22.5 °F 29.94 in SSE 4.0 mph 10.0 mph 70% 0.00 in
10:19 31.2 °F 22.2 °F 29.93 in ENE 4.0 mph 9.0 mph 69% 0.00 in
10:24 31.4 °F 22.4 °F 29.93 in East 4.0 mph 11.0 mph 69% 0.00 in
10:29 31.7 °F 22.3 °F 29.93 in East 4.0 mph 14.0 mph 68% 0.00 in
10:34 31.7 °F 22.3 °F 29.92 in East 5.0 mph 14.0 mph 68% 0.00 in
10:39 31.8 °F 22.4 °F 29.92 in East 5.0 mph 13.0 mph 68% 0.00 in
10:44 31.9 °F 22.5 °F 29.92 in ENE 5.0 mph 14.0 mph 68% 0.00 in
10:49 31.9 °F 22.5 °F 29.92 in ENE 5.0 mph 14.0 mph 68% 0.00 in
10:54 32.3 °F 23.3 °F 29.92 in ENE 5.0 mph 10.0 mph 69% 0.00 in
10:59 32.6 °F 23.2 °F 29.92 in East 6.0 mph 9.0 mph 68% 0.00 in
11:04 32.4 °F 22.7 °F 29.92 in SSE 3.0 mph 11.0 mph 67% 0.00 in
11:09 32.3 °F 22.6 °F 29.91 in NE 3.0 mph 11.0 mph 67% 0.00 in
11:14 32.2 °F 22.8 °F 29.91 in NE 6.0 mph 10.0 mph 68% 0.00 in
11:19 32.5 °F 23.5 °F 29.91 in ENE 1.0 mph 9.0 mph 69% 0.00 in
11:24 32.6 °F 22.8 °F 29.91 in East 5.0 mph 11.0 mph 67% 0.00 in
11:29 32.9 °F 23.5 °F 29.90 in ENE 4.0 mph 11.0 mph 68% 0.00 in
11:34 33.1 °F 23.7 °F 29.90 in ENE 4.0 mph 9.0 mph 68% 0.00 in
11:39 33.9 °F 24.1 °F 29.89 in ENE 4.0 mph 13.0 mph 67% 0.00 in
11:44 34.0 °F 23.8 °F 29.89 in ENE 5.0 mph 13.0 mph 66% 0.00 in
11:49 33.6 °F 23.4 °F 29.89 in ENE 6.0 mph 11.0 mph 66% 0.00 in
11:54 33.8 °F 23.6 °F 29.88 in ENE 5.0 mph 11.0 mph 66% 0.00 in
11:59 33.8 °F 23.6 °F 29.88 in ENE 5.0 mph 11.0 mph 66% 0.00 in
12:04 34.1 °F 23.9 °F 29.87 in NE 6.0 mph 13.0 mph 66% 0.00 in
12:09 34.2 °F 24.0 °F 29.87 in NE 4.0 mph 9.0 mph 66% 0.00 in
12:14 34.0 °F 23.5 °F 29.87 in NE 6.0 mph 11.0 mph 65% 0.00 in
12:19 33.8 °F 23.6 °F 29.86 in East 3.0 mph 9.0 mph 66% 0.00 in
12:24 34.1 °F 23.9 °F 29.86 in ENE 5.0 mph 9.0 mph 66% 0.00 in
12:29 34.1 °F 24.3 °F 29.85 in NE 7.0 mph 14.0 mph 67% 0.00 in
12:34 33.9 °F 24.1 °F 29.85 in ESE 2.0 mph 8.0 mph 67% 0.00 in
12:39 34.4 °F 24.6 °F 29.84 in ENE 5.0 mph 10.0 mph 67% 0.00 in
12:44 34.0 °F 24.2 °F 29.84 in NE 6.0 mph 13.0 mph 67% 0.00 in
12:49 33.7 °F 24.3 °F 29.84 in NE 6.0 mph 15.0 mph 68% 0.00 in
12:54 33.3 °F 23.9 °F 29.83 in NE 7.0 mph 15.0 mph 68% 0.00 in
12:59 33.4 °F 24.0 °F 29.83 in NE 8.0 mph 14.0 mph 68% 0.00 in
13:04 33.5 °F 24.1 °F 29.83 in ENE 6.0 mph 12.0 mph 68% 0.00 in
13:09 33.7 °F 23.9 °F 29.82 in East 7.0 mph 12.0 mph 67% 0.00 in
13:14 33.6 °F 24.2 °F 29.82 in ENE 6.0 mph 12.0 mph 68% 0.00 in
13:19 33.7 °F 24.6 °F 29.82 in NE 6.0 mph 13.0 mph 69% 0.00 in
13:24 34.1 °F 24.6 °F 29.81 in NE 6.0 mph 12.0 mph 68% 0.00 in
13:29 34.2 °F 24.7 °F 29.81 in NE 8.0 mph 12.0 mph 68% 0.00 in
13:34 34.1 °F 24.6 °F 29.81 in NNE 5.0 mph 12.0 mph 68% 0.00 in
13:39 34.2 °F 25.1 °F 29.81 in NE 6.0 mph 11.0 mph 69% 0.00 in
13:44 34.1 °F 24.6 °F 29.81 in NE 4.0 mph 11.0 mph 68% 0.00 in
13:49 34.1 °F 24.6 °F 29.80 in NE 6.0 mph 14.0 mph 68% 0.00 in
13:54 33.9 °F 24.4 °F 29.80 in NE 7.0 mph 14.0 mph 68% 0.00 in
13:59 34.3 °F 25.2 °F 29.80 in NE 7.0 mph 13.0 mph 69% 0.00 in
14:04 34.4 °F 24.9 °F 29.79 in ENE 5.0 mph 13.0 mph 68% 0.00 in
14:09 34.5 °F 25.0 °F 29.79 in NE 6.0 mph 13.0 mph 68% 0.00 in
14:14 34.6 °F 25.1 °F 29.79 in NE 7.0 mph 12.0 mph 68% 0.00 in
14:19 34.6 °F 25.1 °F 29.79 in NE 7.0 mph 11.0 mph 68% 0.00 in
14:24 34.7 °F 25.2 °F 29.79 in NE 6.0 mph 13.0 mph 68% 0.00 in
14:29 34.8 °F 25.3 °F 29.79 in NE 11.0 mph 15.0 mph 68% 0.00 in
14:34 34.8 °F 25.0 °F 29.79 in East 5.0 mph 11.0 mph 67% 0.00 in
14:39 34.8 °F 25.3 °F 29.79 in ENE 5.0 mph 11.0 mph 68% 0.00 in
14:44 35.0 °F 25.5 °F 29.79 in ENE 2.0 mph 9.0 mph 68% 0.00 in
14:49 35.1 °F 25.6 °F 29.79 in NE 6.0 mph 10.0 mph 68% 0.00 in
14:54 35.3 °F 25.4 °F 29.78 in NE 5.0 mph 9.0 mph 67% 0.00 in
14:59 35.5 °F 25.6 °F 29.78 in ENE 4.0 mph 9.0 mph 67% 0.00 in
15:04 35.4 °F 25.2 °F 29.78 in ENE 4.0 mph 11.0 mph 66% 0.00 in
15:09 35.4 °F 25.5 °F 29.78 in ENE 5.0 mph 11.0 mph 67% 0.00 in
15:14 35.5 °F 25.6 °F 29.78 in NE 4.0 mph 9.0 mph 67% 0.00 in
15:19 35.6 °F 25.7 °F 29.78 in NE 3.0 mph 7.0 mph 67% 0.00 in
15:24 35.7 °F 25.8 °F 29.78 in NE 3.0 mph 7.0 mph 67% 0.00 in
15:30 35.9 °F 26.4 °F 29.79 in NE 3.0 mph 6.0 mph 68% 0.00 in
15:39 35.9 °F 26.0 °F 29.78 in NE 3.0 mph 7.0 mph 67% 0.00 in
15:44 36.0 °F 26.1 °F 29.78 in NE 4.0 mph 9.0 mph 67% 0.00 in
15:49 36.1 °F 26.2 °F 29.78 in NE 3.0 mph 8.0 mph 67% 0.00 in
15:55 36.1 °F 26.2 °F 29.78 in NE 2.0 mph 6.0 mph 67% 0.00 in
16:00 36.3 °F 26.4 °F 29.79 in NE 2.0 mph 7.0 mph 67% 0.00 in
16:05 36.4 °F 26.5 °F 29.79 in ENE 2.0 mph 4.0 mph 67% 0.00 in
16:10 36.5 °F 26.6 °F 29.79 in ENE 2.0 mph 4.0 mph 67% 0.00 in
16:19 36.7 °F 27.1 °F 29.80 in East 1.0 mph 5.0 mph 68% 0.00 in
16:24 36.8 °F 27.2 °F 29.80 in ESE 1.0 mph 5.0 mph 68% 0.00 in
16:29 36.9 °F 28.0 °F 29.80 in SSE 1.0 mph 5.0 mph 70% 0.00 in
16:34 36.7 °F 28.9 °F 29.80 in South 3.0 mph 5.0 mph 73% 0.00 in
16:39 36.2 °F 28.7 °F 29.80 in South 3.0 mph 5.0 mph 74% 0.00 in
16:44 35.8 °F 29.0 °F 29.79 in SSE 3.0 mph 5.0 mph 76% 0.00 in
16:49 35.4 °F 29.2 °F 29.80 in SSE 1.0 mph 4.0 mph 78% 0.00 in
16:54 35.1 °F 29.2 °F 29.80 in Calm   2.0 mph 79% 0.00 in
16:59 34.9 °F 29.7 °F 29.80 in Calm     81% 0.00 in
17:04 34.8 °F 29.9 °F 29.79 in Calm     82% 0.00 in
17:09 34.6 °F 29.7 °F 29.79 in Calm   2.0 mph 82% 0.00 in
17:14 34.6 °F 30.0 °F 29.79 in SE 1.0 mph 3.0 mph 83% 0.00 in
17:19 34.6 °F 30.3 °F 29.79 in ENE 1.0 mph 4.0 mph 84% 0.00 in
17:24 34.6 °F 30.3 °F 29.79 in NE 2.0 mph 5.0 mph 84% 0.00 in
17:29 34.6 °F 30.3 °F 29.80 in NE 3.0 mph 5.0 mph 84% 0.00 in
17:39 34.5 °F 30.5 °F 29.80 in NE 2.0 mph 3.0 mph 85% 0.00 in
17:44 34.4 °F 30.4 °F 29.80 in Calm   3.0 mph 85% 0.00 in
17:49 34.3 °F 30.3 °F 29.80 in Calm   3.0 mph 85% 0.00 in
17:54 34.3 °F 30.3 °F 29.81 in Calm   2.0 mph 85% 0.00 in
17:59 34.4 °F 30.4 °F 29.81 in Calm   1.0 mph 85% 0.00 in
18:04 34.3 °F 30.3 °F 29.81 in Calm   3.0 mph 85% 0.00 in
18:09 34.3 °F 30.5 °F 29.81 in Calm     86% 0.00 in
18:14 34.3 °F 30.5 °F 29.81 in Calm     86% 0.00 in
18:19 34.3 °F 30.5 °F 29.81 in Calm     86% 0.00 in
18:24 34.3 °F 30.5 °F 29.81 in Calm     86% 0.00 in
18:29 34.3 °F 30.5 °F 29.81 in Calm     86% 0.00 in
18:34 34.2 °F 30.4 °F 29.81 in Calm     86% 0.00 in
18:39 34.2 °F 30.4 °F 29.81 in NNE 1.0 mph 5.0 mph 86% 0.00 in
18:44 34.1 °F 30.4 °F 29.81 in NNE 1.0 mph 5.0 mph 86% 0.00 in
18:49 34.2 °F 30.4 °F 29.81 in NE 1.0 mph 4.0 mph 86% 0.00 in
18:54 34.2 °F 30.4 °F 29.82 in Calm   3.0 mph 86% 0.00 in
18:59 34.2 °F 30.4 °F 29.82 in Calm   2.0 mph 86% 0.00 in
19:04 33.9 °F 30.2 °F 29.82 in Calm   2.0 mph 86% 0.00 in
19:09 33.8 °F 30.3 °F 29.82 in Calm     87% 0.00 in
19:14 33.9 °F 30.4 °F 29.82 in Calm   2.0 mph 87% 0.00 in
19:19 33.8 °F 30.3 °F 29.81 in NE 3.0 mph 4.0 mph 87% 0.00 in
19:24 33.7 °F 30.2 °F 29.81 in NE 3.0 mph 5.0 mph 87% 0.00 in
19:29 33.5 °F 30.0 °F 29.81 in ENE 3.0 mph 5.0 mph 87% 0.00 in
19:34 33.5 °F 29.8 °F 29.81 in NE 2.0 mph 6.0 mph 86% 0.00 in
19:39 33.4 °F 29.7 °F 29.80 in ENE 2.0 mph 6.0 mph 86% 0.00 in
19:44 33.3 °F 29.6 °F 29.80 in East 2.0 mph 5.0 mph 86% 0.00 in
19:49 33.3 °F 29.6 °F 29.80 in East 2.0 mph 5.0 mph 86% 0.00 in
19:54 33.2 °F 29.5 °F 29.79 in East 2.0 mph 6.0 mph 86% 0.00 in
19:59 33.0 °F 29.3 °F 29.80 in East 1.0 mph 3.0 mph 86% 0.00 in
20:04 32.9 °F 29.2 °F 29.80 in Calm   1.0 mph 86% 0.00 in
20:09 32.7 °F 29.0 °F 29.80 in Calm   1.0 mph 86% 0.00 in
20:14 32.6 °F 28.9 °F 29.80 in Calm     86% 0.00 in
20:19 32.7 °F 29.0 °F 29.81 in Calm     86% 0.00 in
20:24 32.8 °F 29.1 °F 29.81 in Calm     86% 0.00 in
20:29 32.7 °F 29.0 °F 29.81 in Calm     86% 0.00 in
20:34 32.5 °F 28.8 °F 29.80 in Calm     86% 0.00 in
20:39 32.2 °F 28.5 °F 29.80 in Calm     86% 0.00 in
20:44 32.0 °F 28.3 °F 29.80 in Calm     86% 0.00 in
20:49 31.9 °F 28.5 °F 29.80 in Calm     87% 0.00 in
20:54 31.9 °F 28.5 °F 29.80 in Calm     87% 0.00 in
20:59 31.7 °F 28.3 °F 29.80 in Calm     87% 0.00 in
21:04 31.7 °F 28.3 °F 29.80 in Calm     87% 0.00 in
21:09 31.5 °F 28.1 °F 29.79 in Calm     87% 0.00 in
21:14 31.4 °F 28.0 °F 29.79 in Calm     87% 0.00 in
21:19 31.4 °F 28.0 °F 29.79 in Calm     87% 0.00 in
21:24 31.4 °F 28.0 °F 29.79 in Calm     87% 0.00 in
21:29 31.4 °F 28.0 °F 29.78 in Calm     87% 0.00 in
21:34 31.3 °F 27.9 °F 29.78 in Calm     87% 0.00 in
21:39 31.1 °F 28.0 °F 29.78 in Calm     88% 0.00 in
21:44 31.0 °F 27.9 °F 29.78 in Calm     88% 0.00 in
21:49 31.0 °F 27.9 °F 29.78 in Calm     88% 0.00 in
21:54 31.0 °F 27.9 °F 29.78 in Calm     88% 0.00 in
21:59 30.8 °F 27.7 °F 29.78 in Calm     88% 0.00 in
22:04 30.7 °F 27.6 °F 29.78 in Calm     88% 0.00 in
22:09 30.8 °F 27.7 °F 29.78 in Calm     88% 0.00 in
22:14 30.8 °F 27.7 °F 29.78 in Calm     88% 0.00 in
22:19 30.6 °F 27.5 °F 29.78 in Calm     88% 0.00 in
22:24 30.7 °F 27.6 °F 29.78 in Calm     88% 0.00 in
22:29 30.6 °F 27.5 °F 29.78 in Calm     88% 0.00 in
22:34 30.6 °F 27.5 °F 29.77 in Calm     88% 0.00 in
22:39 30.5 °F 27.4 °F 29.77 in Calm     88% 0.00 in
22:44 30.6 °F 27.5 °F 29.77 in Calm     88% 0.00 in
22:49 30.7 °F 27.6 °F 29.77 in Calm     88% 0.00 in
22:54 30.7 °F 27.3 °F 29.77 in Calm     87% 0.00 in
22:59 30.6 °F 27.2 °F 29.77 in Calm     87% 0.00 in
23:04 30.5 °F 27.1 °F 29.76 in Calm     87% 0.00 in
23:09 30.4 °F 27.0 °F 29.77 in Calm     87% 0.00 in
23:14 30.4 °F 27.0 °F 29.76 in Calm     87% 0.00 in
23:19 30.4 °F 26.7 °F 29.76 in Calm     86% 0.00 in
23:24 30.3 °F 26.6 °F 29.76 in Calm     86% 0.00 in
23:29 30.4 °F 26.7 °F 29.76 in Calm   3.0 mph 86% 0.00 in
23:34 30.3 °F 26.6 °F 29.76 in Calm   2.0 mph 86% 0.00 in
23:39 30.1 °F 26.1 °F 29.76 in Calm   2.0 mph 85% 0.00 in
23:44 30.2 °F 26.5 °F 29.75 in Calm   3.0 mph 86% 0.00 in
23:49 30.1 °F 26.1 °F 29.75 in Calm     85% 0.00 in
23:54 29.8 °F 25.8 °F 29.75 in Calm     85% 0.00 in
23:59 29.5 °F 25.5 °F 29.75 in Calm     85% 0.00 in
Buffalo, New York, USA
Compliments of Weather Underground - 2.5 mb